Weather History for Covington, KY

Change the Weather History Date:

Monday, March 4, 2013

  Actual Average Record
Temperature  
Mean Temperature 30 °F 39 °F  
Max Temperature 42 °F 48 °F 80 °F (1976)
Min Temperature 17 °F 30 °F 1 °F (1873)
Degree Days  
Heating Degree Days 35 26  
Month to date heating degree days 142 105  
Since 1 July heating degree days 3852 3932  
Cooling Degree Days 0 0  
Month to date cooling degree days 0 0  
Year to date cooling degree days 0 0  
Moisture  
Dew Point 19 °F    
Average Humidity 67    
Maximum Humidity 92    
Minimum Humidity 41    
Precipitation  
Precipitation T in 0.11 in 3.67 in (1964)
Month to date precipitation 0.07 0.42  
Year to date precipitation 5.67 6.23  
Snow  
Snow 0.00 in 0.10 in 5.40 in (1922)
Month to date snowfall 0.6 0.5  
Since 1 July snowfall 17.0 19.1  
Snow Depth 0.00 in    
Sea Level Pressure  
Sea Level Pressure 30.10 in    
Wind  
Wind Speed 5 mph (SE)    
Max Wind Speed 15 mph    
Max Gust Speed 20 mph    
Visibility 9 miles    
Events Rain    
T = Trace of Precipitation, MM = Missing Value Source: NWS Daily Summary

Daily Weather History Graph

Daily Weather History Graph

Search for Another Location

Airport:

Trip Planner

Search our weather history database for the weather conditions in past years. The results will help you decide how hot, cold, wet, or windy it might be!

Date:

Astronomy

Mar. 04, 2013 Rise Set
Actual Time 7:06 AM EST 6:34 PM EST
Civil Twilight 6:39 AM EST 7:01 PM EST
Nautical Twilight 6:08 AM EST 7:32 PM EST
Astronomical Twilight 5:37 AM EST 8:03 PM EST
Moon 1:13 AM EST (3/4) 11:17 AM EST (3/4)
Length of Visible Light 12h 21m
Length of Day
11h 28m
Waning Gibbous, 52% of the Moon is Illuminated
Mar 4
Waning Gibbous
Mar 4
Last Quarter
Mar 11
New
Mar 19
First Quarter
Mar 27
Full

Hourly Weather History & Observations

Time (EST) Temp. Windchill Dew Point Humidity Pressure Visibility Wind Dir Wind Speed Gust Speed Precip Events Conditions
12:52 AM 19.0 °F - 16.0 °F 88% 30.12 in 8.0 mi Calm Calm - N/A   Clear
1:52 AM 19.0 °F - 16.0 °F 88% 30.13 in 7.0 mi Calm Calm - N/A   Clear
2:52 AM 17.6 °F - 15.8 °F 93% 30.11 in 7.0 mi Calm Calm - N/A   Clear
3:52 AM 18.0 °F - 15.1 °F 88% 30.14 in 7.0 mi Calm Calm - N/A   Clear
4:52 AM 18.0 °F - 15.1 °F 88% 30.15 in 6.0 mi Calm Calm - N/A   Clear
5:52 AM 17.6 °F - 15.8 °F 93% 30.13 in 6.0 mi Calm Calm - N/A   Clear
6:52 AM 17.1 °F - 14.0 °F 88% 30.17 in 7.0 mi Calm Calm - N/A   Clear
7:52 AM 19.9 °F - 17.1 °F 89% 30.18 in 8.0 mi Calm Calm - N/A   Scattered Clouds
8:52 AM 27.0 °F 23.0 °F 19.9 °F 75% 30.18 in 9.0 mi South 3.5 mph - N/A   Scattered Clouds
9:52 AM 30.9 °F 25.2 °F 19.0 °F 61% 30.17 in 10.0 mi SE 5.8 mph - N/A   Mostly Cloudy
10:52 AM 33.1 °F 26.1 °F 18.0 °F 54% 30.16 in 10.0 mi ESE 8.1 mph - N/A   Mostly Cloudy
11:52 AM 35.1 °F 28.6 °F 19.0 °F 52% 30.14 in 10.0 mi SE 8.1 mph - N/A   Overcast
12:52 PM 37.0 °F 31.6 °F 19.9 °F 50% 30.12 in 10.0 mi SSE 6.9 mph - N/A   Mostly Cloudy
1:52 PM 39.9 °F 33.9 °F 19.9 °F 45% 30.08 in 10.0 mi South 9.2 mph - N/A   Mostly Cloudy
2:52 PM 41.0 °F 35.8 °F 19.9 °F 43% 30.06 in 10.0 mi South 8.1 mph - N/A   Mostly Cloudy
3:52 PM 41.0 °F 35.2 °F 19.9 °F 43% 30.05 in 10.0 mi SSE 9.2 mph - N/A   Overcast
4:52 PM 41.0 °F 35.2 °F 21.9 °F 47% 30.04 in 10.0 mi SSE 9.2 mph - N/A   Overcast
5:52 PM 39.9 °F 35.1 °F 21.9 °F 49% 30.04 in 10.0 mi SE 6.9 mph - N/A   Overcast
6:52 PM 39.0 °F 33.4 °F 25.0 °F 57% 30.03 in 10.0 mi ESE 8.1 mph - 0.00 in Rain Light Rain
7:52 PM 37.9 °F 30.5 °F 25.0 °F 60% 30.00 in 10.0 mi East 11.5 mph - 0.00 in   Overcast
8:52 PM 37.9 °F 32.7 °F 24.1 °F 57% 30.02 in 10.0 mi ESE 6.9 mph - N/A   Overcast
9:52 PM 37.9 °F 32.1 °F 23.0 °F 55% 30.03 in 10.0 mi ESE 8.1 mph - N/A   Overcast
10:52 PM 37.0 °F 31.6 °F 24.1 °F 59% 30.02 in 10.0 mi East 6.9 mph - N/A   Overcast
11:52 PM 37.9 °F 32.7 °F 24.1 °F 57% 30.01 in 10.0 mi ESE 6.9 mph - N/A   Overcast